When you browse on this site, cookies collect data to enhance your experience and personalize the content and advertising you see.
Visit our Privacy Policy to learn more. By continuing to use the site, you agree to this use of cookies and data.
  • In Lithuania
  • List of Countries
  • For 7 days
  • Water Temperature
  • Satellite Maps
  • Weather Map
  • Weather Widgets
  • user-avatar
    Login

    Hourly Weather Canillo

    Today, 21 May, Tuesday

    Time Temperature Precipitation Wind Pressure Humidity
    00:00 +4°C° 0 mm 1 mps 615 mmHg 97%
    01:00 +3°C° 0 mm 1 mps 615 mmHg 97%
    02:00 +3°C° 0 mm 1 mps 615 mmHg 96%
    03:00 +3°C° 0 mm 1 mps 615 mmHg 96%
    04:00 +3°C° 0 mm 1 mps 615 mmHg 94%
    05:00 +4°C° 0 mm 1 mps 615 mmHg 93%
    06:00 +5°C° 0 mm 1 mps 616 mmHg 90%
    07:00 +7°C° 0 mm 1 mps 617 mmHg 81%
    08:00 +8°C° 0 mm 1 mps 617 mmHg 71%
    09:00 +10°C° 0 mm 1 mps 618 mmHg 62%
    10:00 +11°C° 0.1 mm 1 mps 618 mmHg 62%
    11:00 +11°C° 0.1 mm 1 mps 618 mmHg 61%
    12:00 +12°C° 0.1 mm 1 mps 619 mmHg 60%
    13:00 +11°C° 0.5 mm 1 mps 618 mmHg 63%
    14:00 +11°C° 0.5 mm 1 mps 618 mmHg 66%
    15:00 +10°C° 0.5 mm 1 mps 618 mmHg 69%
    16:00 +10°C° 0.6 mm 1 mps 617 mmHg 74%
    17:00 +9°C° 0.6 mm 1 mps 617 mmHg 80%
    18:00 +8°C° 0.6 mm 1 mps 617 mmHg 86%
    19:00 +7°C° 0.1 mm 1 mps 617 mmHg 88%
    20:00 +6°C° 0.1 mm 1 mps 617 mmHg 91%
    21:00 +6°C° 0.1 mm 1 mps 617 mmHg 93%
    22:00 +5°C° 0 mm 1 mps 617 mmHg 94%
    23:00 +4°C° 0 mm 1 mps 617 mmHg 94%

    Tomorrow, 22 May, Wednesday

    Time Temperature Precipitation Wind Pressure Humidity
    00:00 +4°C° 0 mm 1 mps 617 mmHg 95%
    01:00 +4°C° 0 mm 1 mps 616 mmHg 95%
    02:00 +3°C° 0 mm 1 mps 616 mmHg 94%
    03:00 +3°C° 0 mm 1 mps 616 mmHg 94%
    04:00 +4°C° 0 mm 1 mps 617 mmHg 91%
    05:00 +5°C° 0 mm 1 mps 617 mmHg 89%
    06:00 +6°C° 0 mm 1 mps 618 mmHg 86%
    07:00 +8°C° 0 mm 1 mps 619 mmHg 75%
    08:00 +11°C° 0 mm 1 mps 620 mmHg 64%
    09:00 +13°C° 0 mm 1 mps 621 mmHg 52%
    10:00 +14°C° 0 mm 1 mps 621 mmHg 50%
    11:00 +14°C° 0 mm 1 mps 621 mmHg 47%
    12:00 +15°C° 0 mm 1 mps 621 mmHg 45%
    13:00 +14°C° 0.3 mm 1 mps 621 mmHg 51%
    14:00 +13°C° 0.3 mm 1 mps 620 mmHg 57%
    15:00 +12°C° 0.3 mm 1 mps 619 mmHg 63%
    16:00 +12°C° 0.2 mm 1 mps 619 mmHg 67%
    17:00 +11°C° 0.2 mm 1 mps 619 mmHg 71%
    18:00 +11°C° 0.2 mm 1 mps 619 mmHg 75%
    19:00 +9°C° 0.1 mm 1 mps 618 mmHg 80%
    20:00 +8°C° 0.1 mm 1 mps 618 mmHg 85%
    21:00 +6°C° 0.1 mm 1 mps 618 mmHg 90%
    22:00 +6°C° 0 mm 1 mps 618 mmHg 90%
    23:00 +6°C° 0 mm 1 mps 618 mmHg 89%

    Day after tomorrow, 23 May, Thursday

    Time Temperature Precipitation Wind Pressure Humidity
    00:00 +5°C° 0 mm 1 mps 617 mmHg 89%
    01:00 +5°C° 0 mm 1 mps 617 mmHg 87%
    02:00 +5°C° 0 mm 1 mps 617 mmHg 85%
    03:00 +5°C° 0 mm 1 mps 617 mmHg 83%
    04:00 +6°C° 0 mm 1 mps 617 mmHg 80%
    05:00 +7°C° 0 mm 1 mps 618 mmHg 77%
    06:00 +8°C° 0 mm 1 mps 618 mmHg 74%
    07:00 +11°C° 0 mm 1 mps 620 mmHg 66%
    08:00 +13°C° 0 mm 1 mps 621 mmHg 57%
    09:00 +16°C° 0 mm 1 mps 622 mmHg 49%
    10:00 +16°C° 0 mm 1 mps 622 mmHg 46%
    11:00 +18°C° 0 mm 1 mps 622 mmHg 44%
    12:00 +19°C° 0 mm 1 mps 622 mmHg 41%
    13:00 +16°C° 0.3 mm 1 mps 621 mmHg 51%
    14:00 +14°C° 0.3 mm 1 mps 620 mmHg 61%
    15:00 +13°C° 0.3 mm 1 mps 619 mmHg 71%
    16:00 +12°C° 1.2 mm 1 mps 619 mmHg 78%
    17:00 +11°C° 1.2 mm 1 mps 618 mmHg 84%
    18:00 +10°C° 1.2 mm 1 mps 618 mmHg 91%
    19:00 +9°C° 1.6 mm 1 mps 618 mmHg 92%
    20:00 +9°C° 1.6 mm 1 mps 618 mmHg 93%
    21:00 +9°C° 1.6 mm 1 mps 618 mmHg 94%
    22:00 +8°C° 0.8 mm 1 mps 618 mmHg 94%
    23:00 +8°C° 0.8 mm 1 mps 618 mmHg 95%

    24 May, Friday

    Time Temperature Precipitation Wind Pressure Humidity
    00:00 +8°C° 0.8 mm 1 mps 618 mmHg 95%
    01:00 +8°C° 0.3 mm 1 mps 617 mmHg 95%
    02:00 +7°C° 0.3 mm 1 mps 617 mmHg 96%
    03:00 +7°C° 0.3 mm 1 mps 617 mmHg 96%
    04:00 +7°C° 0.3 mm 1 mps 617 mmHg 96%
    05:00 +7°C° 0.3 mm 1 mps 617 mmHg 95%
    06:00 +8°C° 0.3 mm 1 mps 617 mmHg 94%
    07:00 +8°C° 1.4 mm 1 mps 617 mmHg 95%
    08:00 +8°C° 1.4 mm 1 mps 617 mmHg 95%
    09:00 +8°C° 1.4 mm 1 mps 618 mmHg 95%
    10:00 +8°C° 1.8 mm 1 mps 618 mmHg 95%
    11:00 +8°C° 1.8 mm 1 mps 618 mmHg 96%
    12:00 +7°C° 1.8 mm 1 mps 617 mmHg 96%
    13:00 +7°C° 0.6 mm 2 mps 617 mmHg 94%
    14:00 +7°C° 0.6 mm 2 mps 617 mmHg 92%
    15:00 +8°C° 0.6 mm 2 mps 617 mmHg 90%
    16:00 +8°C° 0.3 mm 2 mps 617 mmHg 91%
    17:00 +7°C° 0.3 mm 2 mps 617 mmHg 92%
    18:00 +7°C° 0.3 mm 2 mps 617 mmHg 92%
    19:00 +7°C° 0.1 mm 2 mps 617 mmHg 93%
    20:00 +6°C° 0.1 mm 2 mps 617 mmHg 94%
    21:00 +5°C° 0.1 mm 2 mps 617 mmHg 95%
    22:00 +5°C° 0.1 mm 2 mps 617 mmHg 94%
    23:00 +5°C° 0.1 mm 2 mps 616 mmHg 94%

    25 May, Saturday

    Time Temperature Precipitation Wind Pressure Humidity
    00:00 +5°C° 0.1 mm 2 mps 616 mmHg 94%
    01:00 +5°C° 0.2 mm 2 mps 616 mmHg 94%
    02:00 +5°C° 0.2 mm 2 mps 616 mmHg 95%
    03:00 +5°C° 0.2 mm 2 mps 616 mmHg 95%
    04:00 +5°C° 0.7 mm 2 mps 616 mmHg 95%
    05:00 +5°C° 0.7 mm 2 mps 616 mmHg 95%
    06:00 +5°C° 0.7 mm 2 mps 616 mmHg 95%
    07:00 +5°C° 2 mm 2 mps 616 mmHg 95%
    08:00 +6°C° 2 mm 2 mps 616 mmHg 95%
    09:00 +6°C° 2 mm 2 mps 617 mmHg 95%
    10:00 +6°C° 1.4 mm 2 mps 617 mmHg 94%
    11:00 +6°C° 1.4 mm 2 mps 617 mmHg 93%
    12:00 +6°C° 1.4 mm 2 mps 617 mmHg 92%
    13:00 +7°C° 0.1 mm 2 mps 617 mmHg 88%
    14:00 +8°C° 0.1 mm 3 mps 617 mmHg 85%
    15:00 +8°C° 0.1 mm 3 mps 617 mmHg 82%
    16:00 +8°C° 0 mm 3 mps 617 mmHg 81%
    17:00 +8°C° 0 mm 3 mps 618 mmHg 80%
    18:00 +8°C° 0 mm 3 mps 618 mmHg 79%
    19:00 +7°C° 0 mm 2 mps 618 mmHg 83%
    20:00 +6°C° 0 mm 2 mps 618 mmHg 88%
    21:00 +6°C° 0 mm 2 mps 618 mmHg 92%
    22:00 +6°C° 0.3 mm 2 mps 618 mmHg 92%
    23:00 +6°C° 0.3 mm 2 mps 618 mmHg 93%

    26 May, Sunday

    Time Temperature Precipitation Wind Pressure Humidity
    00:00 +6°C° 0.3 mm 2 mps 618 mmHg 93%
    01:00 +6°C° 0.1 mm 2 mps 618 mmHg 94%
    02:00 +7°C° 0.1 mm 2 mps 618 mmHg 94%
    03:00 +7°C° 0.1 mm 2 mps 618 mmHg 95%
    04:00 +7°C° 0.1 mm 3 mps 618 mmHg 94%
    05:00 +7°C° 0.1 mm 3 mps 618 mmHg 93%
    06:00 +7°C° 0.1 mm 3 mps 618 mmHg 93%
    07:00 +7°C° 0 mm 3 mps 619 mmHg 87%
    08:00 +8°C° 0 mm 3 mps 619 mmHg 81%
    09:00 +8°C° 0 mm 4 mps 619 mmHg 75%
    10:00 +10°C° 0 mm 4 mps 619 mmHg 70%
    11:00 +11°C° 0 mm 4 mps 620 mmHg 66%
    12:00 +12°C° 0 mm 4 mps 620 mmHg 61%
    13:00 +12°C° 0 mm 4 mps 619 mmHg 60%
    14:00 +12°C° 0 mm 4 mps 619 mmHg 59%
    15:00 +13°C° 0 mm 4 mps 619 mmHg 58%
    16:00 +12°C° 0 mm 3 mps 619 mmHg 64%
    17:00 +11°C° 0 mm 3 mps 618 mmHg 70%
    18:00 +10°C° 0 mm 3 mps 618 mmHg 76%
    19:00 +9°C° 0 mm 3 mps 618 mmHg 80%
    20:00 +7°C° 0 mm 2 mps 618 mmHg 85%
    21:00 +6°C° 0 mm 2 mps 618 mmHg 90%
    22:00 +6°C° 0 mm 2 mps 617 mmHg 91%
    23:00 +5°C° 0 mm 2 mps 617 mmHg 92%
    Show more